Weather observations for the past three days for
Trenton, Ont.
Imperial (Metric)
Date Time (edt) Wind (mph) Vis. (mi.) Weather Sky Cond. Temperature (ºF) Relative Humidity Wind Chill (°F) Heat Index (°F) Pressure Precipitation (in)
Air Dwpt 6 hour altimeter (in) sea level (mb) 1 hr 3 hr 6 hr
Max. Min.
23 14:00 SE 3 15.00 Mostly Cloudy FEW040 FEW120 BKN200 82.4 62.6 51% 83 30.02 1016.6
23 13:00 S 5 15.00 Partly Cloudy FEW020 FEW080 SCT200 80.6 64.4 58% 82 30.03 1016.8
23 12:00 E 5 15.00 A Few Clouds FEW020 FEW085 FEW130 78.8 66.2 65% 81 30.03 1016.8
23 11:00 NE 5 15.00 Mostly Cloudy FEW020 SCT080 BKN130 77 64.4 65% 79 30.03 1016.9
23 10:00 NW 3 15.00 Mostly Cloudy FEW020 SCT085 BKN130 73.4 62.6 69% 30.02 1016.6
23 09:00 NW 6 15.00 Mostly Cloudy FEW090 BKN130 73.4 62.6 69% 30 1015.9
23 08:00 NW 7 15.00 Mostly Cloudy FEW090 BKN160 69.8 64.4 83% 29.99 1015.6
23 07:00 NW 2 15.00 Mostly Cloudy FEW090 BKN160 68 66.2 94% 29.98 1015.0
23 06:00 Calm 10.00 Overcast FEW095 BKN120 OVC150 68 66.2 94% 29.97 1014.8
23 05:00 N 2 15.00 Overcast OVC150 68 66.2 94% 29.96 1014.3
23 04:00 SW 5 15.00 Overcast SCT075 BKN100 OVC160 71.6 68 88% 29.95 1014.2
23 03:00 S 3 15.00 Overcast SCT050 BKN060 OVC170 71.6 68 88% 29.96 1014.4
23 02:00 Calm 15.00 Overcast BKN060 BKN150 OVC190 69.8 66.2 88% 29.95 1014.2
23 01:00 Calm 15.00 Overcast BKN060 OVC110 69.8 66.2 88% 29.96 1014.3
23 00:00 Calm 15.00 Overcast BKN120 BKN160 OVC180 71.6 66.2 83% 29.96 1014.4
22 23:00 Calm 15.00 Overcast SCT065 BKN110 OVC220 71.6 64.4 78% 29.96 1014.4
22 22:00 NE 2 15.00 Overcast FEW040 OVC200 71.6 64.4 78% 29.96 1014.4
22 21:00 NW 2 15.00 Mostly Cloudy FEW040 FEW150 BKN180 73.4 64.4 74% 29.94 1013.9
22 20:00 W 6 15.00 Mostly Cloudy FEW040 FEW150 BKN180 75.2 64.4 69% 77 29.94 1014.0
22 19:00 SW 7 15.00 Mostly Cloudy FEW040 BKN180 77 66.2 69% 79 29.95 1014.1
22 18:00 SW 8 15.00 Mostly Cloudy FEW040 FEW180 BKN250 78.8 66.2 65% 81 29.94 1013.9
22 17:00 SW 7 15.00 Mostly Cloudy FEW040 BKN250 80.6 66.2 62% 83 29.95 1014.1
22 16:00 S 6 15.00 Mostly Cloudy FEW040 BKN250 82.4 66.2 58% 85 29.96 1014.5
22 15:00 S 5 15.00 Mostly Cloudy FEW040 BKN250 80.6 64.4 58% 82 29.97 1014.8
22 14:00 SW 5 15.00 Mostly Cloudy FEW040 BKN250 80.6 62.6 54% 82 29.99 1015.4
22 13:00 SW 5 15.00 Mostly Cloudy SCT040 BKN250 80.6 64.4 58% 82 30.01 1016.1
22 12:00 SE 2 15.00 Mostly Cloudy BKN046 BKN250 78.8 62.6 58% 80 30.03 1016.8
22 11:00 NE 2 15.00 Mostly Cloudy FEW050 BKN250 77 60.8 57% 79 30.03 1017.0
22 10:00 NE 3 15.00 Partly Cloudy FEW040 SCT080 SCT250 73.4 64.4 74% 30.04 1017.1
22 09:00 NE 2 15.00 Mostly Cloudy SCT040 BKN080 BKN250 66.2 62.6 88% 30.05 1017.6
22 08:00 N 2 15.00 Mostly Cloudy BKN040 BKN250 64.4 60.8 88% 30.05 1017.5
22 07:00 N 5 15.00 Partly Cloudy FEW040 SCT250 60.8 59 94% 30.04 1017.3
22 06:00 N 3 12.00 Partly Cloudy FEW050 SCT250 59 59 100% 30.04 1017.3
22 05:00 N 2 15.00 A Few Clouds FEW250 59 59 100% 30.04 1017.2
22 04:00 NW 2 15.00 A Few Clouds FEW250 60.8 59 94% 30.04 1017.1
22 03:00 Calm 15.00 A Few Clouds FEW060 60.8 59 94% 30.05 1017.6
22 02:00 N 2 15.00 A Few Clouds FEW065 62.6 59 88% 30.06 1017.9
22 01:00 Calm 15.00 A Few Clouds FEW060 66.2 59 78% 30.05 1017.7
22 00:00 NE 5 15.00 A Few Clouds FEW250 64.4 60.8 88% 30.04 1017.4
21 23:00 Calm 15.00 A Few Clouds FEW250 68 62.6 83% 30.04 1017.4
21 22:00 W 3 15.00 A Few Clouds FEW250 69.8 62.6 78% 30.05 1017.5
21 21:00 S 3 15.00 A Few Clouds FEW250 73.4 64.4 74% 30.03 1016.7
21 20:00 SW 5 15.00 A Few Clouds FEW250 77 62.6 61% 79 30.02 1016.5
21 19:00 SW 8 15.00 A Few Clouds FEW050TCU FEW250 78.8 60.8 54% 80 30.02 1016.4
21 18:00 S 7 15.00 Partly Cloudy FEW050TCU SCT250 78.8 62.6 58% 80 30.02 1016.5
21 17:00 SW 10 15.00 Partly Cloudy FEW050TCU SCT250 78.8 62.6 58% 80 30.03 1016.8
21 16:00 SW 9 15.00 Partly Cloudy FEW050TCU SCT250 78.8 66.2 65% 81 30.03 1017.0
21 15:00 SW 10 15.00 Partly Cloudy FEW035TCU SCT250 78.8 66.2 65% 81 30.04 1017.2
21 14:00 SW 9 15.00 Partly Cloudy FEW035TCU SCT250 77 66.2 69% 79 30.04 1017.2
21 13:00 SW 9 15.00 Mostly Cloudy SCT035 BKN060 75.2 64.4 69% 77 30.04 1017.4
21 12:00 W 3 15.00 Mostly Cloudy SCT030 BKN075 77 64.4 65% 79 30.05 1017.5
21 11:00 NE 2 15.00 Mostly Cloudy SCT026TCU BKN075 75.2 64.4 69% 77 30.05 1017.4
21 10:00 Calm 15.00 Partly Cloudy FEW040 SCT075 73.4 64.4 74% 30.05 1017.4
21 09:00 N 2 15.00 Mostly Cloudy FEW040 SCT085 BKN100 71.6 64.4 78% 30.06 1017.8
21 08:00 N 3 15.00 Mostly Cloudy SCT065 BKN095 69.8 64.4 83% 30.05 1017.7
21 07:00 NE 2 15.00 Mostly Cloudy BKN065 66.2 62.6 88% 30.04 1017.1
21 06:00 Calm 15.00 Mostly Cloudy BKN070 66.2 62.6 88% 30.02 1016.5
21 05:00 N 3 15.00 Mostly Cloudy BKN070 66.2 60.8 83% 30.01 1016.3
21 04:00 N 3 15.00 Mostly Cloudy BKN095 66.2 60.8 83% 30.01 1016.1
21 03:00 Calm 15.00 Mostly Cloudy BKN120 66.2 59 78% 30.01 1016.3
21 02:00 Calm 15.00 Partly Cloudy SCT120 64.4 59 83% 30.01 1016.4
21 01:00 Calm 15.00 Mostly Cloudy SCT090 BKN250 66.2 60.8 83% 30.02 1016.5
21 00:00 N 2 15.00 A Few Clouds FEW250 66.2 59 78% 30.02 1016.4
20 23:00 W 6 15.00 Partly Cloudy FEW120 SCT250 71.6 57.2 61% 30.01 1016.1
20 22:00 W 8 15.00 Mostly Cloudy SCT140 BKN250 71.6 57.2 61% 30.02 1016.4
20 21:00 W 9 15.00 Partly Cloudy FEW090 SCT250 71.6 57.2 61% 30 1016.1
20 20:00 SW 13 15.00 Partly Cloudy SCT250 75.2 55.4 50% 78 30 1015.8
20 19:00 W 12 G 17 15.00 Partly Cloudy SCT250 77 55.4 47% 79 30 1015.8
20 18:00 SW 13 G 20 15.00 Partly Cloudy FEW045 SCT250 78.8 55.4 45% 79 30 1015.9
20 17:00 SW 14 G 22 15.00 A Few Clouds FEW045 FEW250 78.8 55.4 45% 79 30.01 1016.1
20 16:00 SW 14 G 21 15.00 A Few Clouds FEW045 FEW250 78.8 59 51% 80 30.01 1016.0
20 15:00 SW 17 G 23 15.00 A Few Clouds FEW045 FEW250 77 57.2 51% 79 30.01 1016.4
Date Time (edt) Wind (mph) Vis. (mi.) Weather Sky Cond. Air Dwpt Max. Min. Relative Humidity Wind Chill (°F) Heat Index (°F) altimeter (in) sea level (mb) 1 hr 3 hr 6 hr
6 hour
Temperature (ºF) Pressure Precipitation (in)